Location: Unspecified
(0.0000°N, 0.0000°E)
Time: 20:05:28
(UTC+00:00)

Envisat - Pass Details

Date: 13 June 2019
Orbit: 764 x 766 km, 98.1° (Epoch: 26 June)

Event Time Altitude Azimuth Distance (km) Brightness Sun altitude
Rises 18:44:37 0° 166° (SSE) 3,231 5.9 -10.2°
Reaches altitude 10° 18:46:56 10° 164° (SSE) 2,303 5.1 -10.7°
Maximum altitude 18:52:00 78° 78° (ENE) 783 2.9 -11.9°
Drops below altitude 10° 18:57:03 10° 352° (N) 2,292 5.9 -13.1°
Sets 18:59:21 0° 351° (N) 3,215 6.7 -13.6°
